Regional Weather Roundup
Issued by NWS

Home | Current Version | Previous Version | Graphics & Text | Print | Product List | Glossary On
Versions: 1 2 3 4 5 6 7 8 9 10 11 12 13 14 15 16 17 18 19 20 21 22 23 24 25 26 27 28 29 30 31 32 33 34 35 36 37 38 39 40 41 42 43 44 45 46 47 48 49 50
000
ASUS45 KCYS 251310
RWRWY

WYOMING REGIONAL WEATHER ROUNDUP
NATIONAL WEATHER SERVICE CHEYENNE WY
600 AM MST SUN JAN 25 2015

NOTE:  "FAIR" INDICATES FEW OR NO CLOUDS BELOW 12,000 FEET
WITH NO SIGNIFICANT WEATHER AND/OR OBSTRUCTIONS TO VISIBILITY.

WYZ001-251400-
YELLOWSTONE NATIONAL PARK

CITY           SKY/WX    TMP DP  RH WIND       PRES   REMARKS
LK YELLOWSTONE   N/A     23  20  88 CALM      30.37R
W YELLOWSTONE  NOT AVBL

$$
WYZ002>013-054>058-071-098>099-251400-
NORTHERN WYOMING

CITY           SKY/WX    TMP DP  RH WIND       PRES   REMARKS
JACKSON        CLOUDY    25  23  93 NE5       30.35F WCI  19
CODY           FAIR      46  27  46 W20G33    30.10F
GREYBULL       FAIR      20  19  96 S3        30.16F
WORLAND        FAIR      20  16  84 SW9       30.15F WCI   9
SHERIDAN       CLOUDY    35  30  82 E3        30.07F
BUFFALO        CLOUDY    36  29  75 S9        30.10S WCI  29
GILLETTE       MOCLDY    34  30  85 W10       30.08S WCI  26
HULETT           N/A    N/A N/A N/A MISG        N/A
NEWCASTLE      FAIR      32  21  64 NW14      30.05R WCI  22

$$
WYZ014>020-022>026-101>103-251400-
CENTRAL WYOMING

CITY           SKY/WX    TMP DP  RH WIND       PRES   REMARKS
BIG PINEY      FAIR      18  16  92 S6        30.32R WCI  10
PINEDALE       FAIR      32  27  80 W18       30.30S WCI  20
DUBOIS         PTSUNNY   36  28  75 NW18G28   30.26R WCI  25
LANDER         FAIR      31  20  63 VRB3      30.15S
RIVERTON       FAIR      24  19  81 S3        30.16S
CASPER         CLOUDY    34  24  67 SW18      30.13F WCI  23
DOUGLAS        CLOUDY    34  26  72 NW12      30.12F WCI  25

$$
WYZ021-027>030-104>119-251400-
SOUTHERN WYOMING

CITY           SKY/WX    TMP DP  RH WIND       PRES   REMARKS
EVANSTON       MOCLDY    28  26  92 SW9       30.43R WCI  19
KEMMERER       CLOUDY    30  30 100 W21       30.36F WCI  17
FORT BRIDGER   FAIR      32  31  96 SW17G23   30.41S WCI  21
ROCK SPRINGS   FAIR      30  26  85 W22       30.31F WCI  17
DIXON          CLOUDY    28  24  83 CALM      30.36R
RAWLINS        FAIR      30  26  85 W20G30    30.24F WCI  17
SARATOGA       FAIR      32  28  86 W14G22    30.26S WCI  22
LARAMIE        FAIR      30  21  69 NW13      30.16F WCI  20
CHEYENNE       FAIR      36  22  56 NW13      30.12S WCI  27
TORRINGTON     FAIR      28  24  85 W8        30.12S WCI  20
PINE BLUFFS    FAIR      30  27  86 W9        30.13R WCI  22

$$


USA.gov is the U.S. government's official web portal to all federal, state and local government web resources and services.